Tauranga (NZTG)

Aerodrome — Elev 13
New Zealand
S037.40.18.998 E176.11.46.000
Loading chart...

Current Weather

NZTG 221030Z 24005KT 45KM NCD 10/05 Q1013 RMK AUTO VATSIM USE ONLY

Published 46 minutes ago

Airport Activity

Loading chart...
Loading chart...

Standard ATC Positions

CallsignRadio Name / Freq / Voice Room / TypeFrequencyVoice RoomType
NZCH-B_CTR Bay Approach
119.500
nzch-b_ctr
119.500nzch-b_ctr
NZTG_TWR Tauranga Tower
118.300
nztg_twr
118.300nztg_twr
NZTG_ATIS Tauranga ATIS
126.600
nztg_atis
126.600nztg_atis

Charts